Weather History for Memphis, TN

Change the Weather History Date:

Wednesday, May 9, 2012

  Actual Average Record
Temperature  
Mean Temperature 71 °F 70 °F  
Max Temperature 80 °F 79 °F 92 °F (1986)
Min Temperature 61 °F 60 °F 44 °F (1923)
Degree Days  
Heating Degree Days 0 1  
Month to date heating degree days 0 10  
Since 1 July heating degree days 2171 2955  
Cooling Degree Days 6 6  
Month to date cooling degree days 114 43  
Year to date cooling degree days 336 138  
Growing Degree Days 22 (Base 50)    
Moisture  
Dew Point 47 °F    
Average Humidity 46    
Maximum Humidity 63    
Minimum Humidity 28    
Precipitation  
Precipitation 0.00 in 0.18 in 3.56 in (1958)
Month to date precipitation 1.03 1.69  
Year to date precipitation 11.18 20.72  
Snow  
Snow 0.00 in 0.00 in - ()
Month to date snowfall 0.0 0.0  
Since 1 July snowfall 1.4 3.8  
Snow Depth 0.00 in    
Sea Level Pressure  
Sea Level Pressure 29.94 in    
Wind  
Wind Speed 8 mph (North)    
Max Wind Speed 20 mph    
Max Gust Speed 25 mph    
Visibility 10 miles    
Events      
T = Trace of Precipitation, MM = Missing Value Source: NWS Daily Summary

Daily Weather History Graph

Daily Weather History Graph

Search for Another Location

Airport:

Trip Planner

Search our weather history database for the weather conditions in past years. The results will help you decide how hot, cold, wet, or windy it might be!

Date:

Astronomy

May. 09, 2012 Rise Set
Actual Time 6:00 AM CDT 7:52 PM CDT
Civil Twilight 5:33 AM CDT 8:20 PM CDT
Nautical Twilight 4:59 AM CDT 8:53 PM CDT
Astronomical Twilight 4:23 AM CDT 9:29 PM CDT
Moon 11:51 PM CDT (5/9) 9:18 AM CDT (5/9)
Length of Visible Light 14h 47m
Length of Day
13h 51m
Waning Gibbous, 82% of the Moon is Illuminated
May 9
Waning Gibbous
May 12
Last Quarter
May 20
New
May 28
First Quarter
Jun 4
Full

Hourly Weather History & Observations

Time (CDT) Temp. Dew Point Humidity Pressure Visibility Wind Dir Wind Speed Gust Speed Precip Events Conditions
12:54 AM 69.1 °F 51.1 °F 53% 29.94 in 10.0 mi NNE 10.4 mph - N/A   Overcast
1:54 AM 68.0 °F 50.0 °F 52% 29.93 in 10.0 mi NNE 8.1 mph - N/A   Mostly Cloudy
2:54 AM 68.0 °F 50.0 °F 52% 29.93 in 10.0 mi NNE 8.1 mph - N/A   Overcast
3:54 AM 66.9 °F 51.1 °F 57% 29.94 in 10.0 mi North 5.8 mph - N/A   Overcast
4:54 AM 64.9 °F 51.1 °F 61% 29.94 in 10.0 mi North 4.6 mph - N/A   Mostly Cloudy
5:54 AM 64.0 °F 51.1 °F 63% 29.96 in 10.0 mi NNE 5.8 mph - N/A   Mostly Cloudy
6:54 AM 64.4 °F 50.0 °F 59% 29.97 in 10.0 mi NNE 4.6 mph - N/A   Mostly Cloudy
7:54 AM 68.0 °F 48.9 °F 50% 29.97 in 10.0 mi NE 5.8 mph - N/A   Scattered Clouds
8:54 AM 71.1 °F 50.0 °F 47% 29.98 in 10.0 mi North 6.9 mph - N/A   Partly Cloudy
9:54 AM 73.9 °F 50.0 °F 43% 29.98 in 10.0 mi NNW 6.9 mph - N/A   Partly Cloudy
10:54 AM 75.9 °F 46.0 °F 35% 29.99 in 10.0 mi North 8.1 mph - N/A   Scattered Clouds
11:54 AM 75.0 °F 44.1 °F 33% 29.97 in 10.0 mi NW 12.7 mph - N/A   Partly Cloudy
12:54 PM 79.0 °F 42.1 °F 27% 29.96 in 10.0 mi NNW 15.0 mph 20.7 mph N/A   Scattered Clouds
1:54 PM 79.0 °F 44.1 °F 29% 29.94 in 10.0 mi NW 11.5 mph 20.7 mph N/A   Scattered Clouds
2:54 PM 79.0 °F 42.1 °F 27% 29.93 in 10.0 mi North 15.0 mph - N/A   Scattered Clouds
3:54 PM 78.1 °F 44.1 °F 30% 29.91 in 10.0 mi NNW 12.7 mph 20.7 mph N/A   Scattered Clouds
4:54 PM 78.1 °F 43.0 °F 29% 29.90 in 10.0 mi NNW 12.7 mph 20.7 mph N/A   Scattered Clouds
5:54 PM 77.0 °F 43.0 °F 30% 29.90 in 10.0 mi NW 16.1 mph 21.9 mph N/A   Partly Cloudy
6:54 PM 75.0 °F 44.1 °F 33% 29.90 in 10.0 mi North 9.2 mph - N/A   Partly Cloudy
7:54 PM 72.0 °F 43.0 °F 35% 29.91 in 10.0 mi North 6.9 mph - N/A   Partly Cloudy
8:54 PM 71.1 °F 44.1 °F 38% 29.92 in 10.0 mi NNW 4.6 mph - N/A   Clear
9:54 PM 70.0 °F 44.1 °F 39% 29.93 in 10.0 mi NNW 3.5 mph - N/A   Clear
10:54 PM 64.0 °F 46.9 °F 54% 29.93 in 10.0 mi Calm Calm - N/A   Clear
11:54 PM 64.0 °F 46.0 °F 52% 29.93 in 10.0 mi Calm Calm - N/A   Clear